Regional Weather Roundup
Issued by NWS

Home | Current Version | Previous Version | Graphics & Text | Print | Product List | Glossary On
Versions: 1 2 3 4 5 6 7 8 9 10 11 12 13 14 15 16 17 18 19 20 21 22 23 24 25 26 27 28 29 30 31 32 33 34 35 36 37 38 39 40 41 42 43 44 45 46 47 48 49 50
000
ASUS43 KIND 262109
RWRIN

WEATHER ROUNDUP FOR INDIANA
NATIONAL WEATHER SERVICE INDIANAPOLIS IN
400 PM EST FRI DEC 26 2014

NOTE: "FAIR" INDICATES FEW OR NO CLOUDS BELOW 12,000 FEET WITH NO
SIGNIFICANT WEATHER AND/OR OBSTRUCTIONS TO VISIBILITY.

* - STATION DOES NOT REPORT WEATHER SUCH AS PRECIPITATION OR FOG.

+ - STATION NOT QUALITY CONTROLLED BY THE NATIONAL WEATHER SERVICE.
    USE DATA WITH CAUTION...ESPECIALLY DEWPOINT AND RELATIVE
    HUMIDITY OBSERVATIONS.

INZ001>003-010>013-019-020-262200-
NORTHWEST INDIANA

CITY           SKY/WX    TMP DP  RH WIND       PRES   REMARKS
GARY /AIRPORT/ PTSUNNY   52  36  54 SW8       30.02S
KNOX *+        MOSUNNY   51  37  59 SW12G18   30.03R
LA PORTE +     PTSUNNY   51  42  70 SW8       30.04R
MICHIGAN CITY+ PTSUNNY   50  36  57 S9        30.03R
MONTICELLO +   SUNNY     51  41  70 S13       30.06R
RENSSELAER +   MOSUNNY   50  45  81 S13G18    30.05R
VALPARAISO     MOSUNNY   50  39  66 SW10      30.03S

$$

LMZ046-743>745-262200-
SOUTHERN LAKE MICHIGAN

STATION/POSITION TIME  TEMP WIND        PRES
                       AIR  DIR/SP/G
                 (UTC) (F)  (DEG/KT/KT) (MB)
MICHIGAN CITY    2100   49  190/ 10/ 12   N/A

$$

INZ004-005-014>016-021>024-262200-
NORTH CENTRAL INDIANA

CITY           SKY/WX    TMP DP  RH WIND       PRES   REMARKS
ELKHART        SUNNY     50  37  62 S7        30.05R
GOSHEN         MOSUNNY   48  40  73 S12       30.05S
LOGANSPORT +   MOSUNNY   50  41  71 S14       30.08R
PERU/GRISSOM   MOSUNNY   50  46  88 S13       30.08R
ROCHESTER +    MOSUNNY   52  43  71 S9        30.06R
SOUTH BEND     PTSUNNY   51  39  63 SW15      30.05R
WARSAW +       MOSUNNY   50  39  66 S3        30.06R

$$

INZ006>009-017-018-025>027-262200-
NORTHEAST INDIANA

CITY           SKY/WX    TMP DP  RH WIND       PRES   REMARKS
ANGOLA *+      SUNNY     46  39  76 SW6       30.06R
AUBURN +       MOSUNNY   50  37  62 S6        30.08R
FORT WAYNE     PTSUNNY   48  40  73 SW10      30.09S
HUNTINGTON +   MOSUNNY   48  41  75 SW7       30.09R

$$

INZ028-029-035-036-043>045-051>053-262200-
WEST CENTRAL INDIANA

CITY           SKY/WX    TMP DP  RH WIND       PRES   REMARKS
GREENCASTLE +  PTSUNNY   48  37  66 S6        30.10F
LAFAYETTE      SUNNY     49  40  71 SW9G18    30.07R
TERRE HAUTE    PTSUNNY   51  41  68 S14       30.10S

$$

INZ030>032-037>040-046>048-054>057-064-065-262200-
CENTRAL INDIANA

CITY           SKY/WX    TMP DP  RH WIND       PRES   REMARKS
ANDERSON       SUNNY     48  39  71 S13       30.11S
CP ATTERBURY + CLOUDY    52  39  62 MISG      30.13S
COLUMBUS       PTSUNNY   50  39  66 S15       30.14S
FRANKFORT +    MOSUNNY   50  43  76 S8        30.10R
INDIANAPOLIS   PTSUNNY   50  40  68 SW14      30.10S
-EAGLE CREEK   PTSUNNY   51  40  65 SW8       30.09S
KOKOMO *+      MOSUNNY  N/A N/A N/A SW12G18   30.08R
MARION +       SUNNY     49  39  68 S12       30.10R
MT COMFORT *+  PTSUNNY   52  34  50 S13       30.11S
SHELBYVILLE    CLOUDY    52  40  63 S15       30.12R
ZIONSVILLE +   MOSUNNY   51  39  64 S15G23    30.10R

$$

INZ033-034-041-042-049-050-058-059-262200-
EAST CENTRAL INDIANA

CITY           SKY/WX    TMP DP  RH WIND       PRES   REMARKS
MUNCIE         MOSUNNY   49  39  68 S10       30.10R

$$

INZ060-061-067>069-081>083-085>088-262200-
SOUTHWEST INDIANA

CITY           SKY/WX    TMP DP  RH WIND       PRES   REMARKS
EVANSVILLE     MOSUNNY   58  42  55 S15       30.15F
HUNTINGBURG *+ MOSUNNY   55  41  58 S14       30.16S
WASHINGTON +   PTSUNNY   54  39  58 S13       30.13S

$$

INZ062-063-066-070>080-084-089>092-262200-
SOUTH CENTRAL AND SOUTHEAST INDIANA

CITY           SKY/WX    TMP DP  RH WIND       PRES   REMARKS
BLOOMINGTON    PTSUNNY   53  42  66 SW9G20    30.12S
SEYMOUR +      PTSUNNY   55  41  58 S8        30.15S

$$




USA.gov is the U.S. government's official web portal to all federal, state and local government web resources and services.